Tacoma, WA

10:52 AM PDT on September 28, 2016 (GMT -0700)
McChord Air Force Base

Weather History for KTCM - November, 2010

Change the Weather History Date:

Wednesday, November 24, 2010

  Actual Average Record
Temperature  
Mean Temperature 18 °F -  
Max Temperature 27 °F 47 °F 62 °F (1974)
Min Temperature 10 °F 34 °F 4 °F (1985)
Degree Days  
Heating Degree Days 46    
Moisture  
Dew Point 12 °F    
Average Humidity 65    
Maximum Humidity 85    
Minimum Humidity 45    
Precipitation  
Precipitation 0.00 in - - ()
Sea Level Pressure  
Sea Level Pressure 30.35 in    
Wind  
Wind Speed 1 mph (SE)    
Max Wind Speed 4 mph    
Max Gust Speed -    
Visibility 10 miles    
Events      
Averages and records for this station are not official NWS values.
T = Trace of Precipitation, MM = Missing Value Source: NWS Daily Summary

Daily Weather History Graph

Daily Weather History Graph

Search for Another Location

Airport or City:

Trip Planner

Search our weather history database for the weather conditions in past years. The results will help you decide how hot, cold, wet, or windy it might be!

Date:

Astronomy

Nov. 24, 2010 Rise Set
Actual Time 7:26 AM PST 4:26 PM PST
Civil Twilight 6:52 AM PST 5:00 PM PST
Nautical Twilight 6:14 AM PST 5:38 PM PST
Astronomical Twilight 5:38 AM PST 6:14 PM PST
Moon 7:16 PM PST (11/24) 10:22 AM PST (11/24)
Length of Visible Light 10h 08m
Length of Day
8h 59m
Waning Gibbous, 89% of the Moon is Illuminated
Nov 24
Waning Gibbous
Nov 28
Last Quarter
Dec 5
New
Dec 13
First Quarter
Dec 21
Full

Hourly Weather History & Observations

Time (PST) Temp. Windchill Dew Point Humidity Pressure Visibility Wind Dir Wind Speed Gust Speed Precip Events Conditions
12:55 AM 11.7 °F 5.5 °F 8.1 °F 85% 30.28 in 10.0 mi SSE 3.5 mph - N/A   Clear
1:55 AM 10.4 °F 4.0 °F 6.4 °F 84% 30.27 in 10.0 mi SSE 3.5 mph - N/A   Clear
2:55 AM 11.7 °F - 7.3 °F 83% 30.29 in 10.0 mi Calm Calm - N/A   Mostly Cloudy
3:55 AM 12.7 °F - 8.1 °F 82% 30.30 in 10.0 mi Calm Calm - N/A   Overcast
4:55 AM 14.5 °F - 9.0 °F 79% 30.30 in 10.0 mi Calm Calm - N/A   Overcast
5:55 AM 15.8 °F - 10.9 °F 81% 30.32 in 10.0 mi Calm Calm - N/A   Overcast
6:55 AM 16.3 °F - 10.4 °F 77% 30.33 in 10.0 mi Calm Calm - N/A   Overcast
7:55 AM 15.8 °F - 10.4 °F 79% 30.33 in 10.0 mi Calm Calm - N/A   Mostly Cloudy
8:55 AM 17.1 °F - 11.1 °F 77% 30.34 in 10.0 mi Calm Calm - N/A   Partly Cloudy
9:55 AM 22.6 °F - 13.3 °F 67% 30.35 in 10.0 mi Calm Calm - N/A   Clear
10:55 AM 24.1 °F - 11.7 °F 59% 30.35 in 10.0 mi Calm Calm - N/A   Mostly Cloudy
11:55 AM 26.2 °F - 8.2 °F 47% 30.33 in 10.0 mi Calm Calm - N/A   Overcast
12:55 PM 26.8 °F - 7.9 °F 45% 30.35 in 10.0 mi Calm Calm - N/A   Overcast
1:55 PM 27.1 °F - 10.9 °F 51% 30.35 in 10.0 mi Calm Calm - N/A   Overcast
2:55 PM 27.3 °F 23.4 °F 9.9 °F 48% 30.36 in 10.0 mi North 3.5 mph - N/A   Overcast
3:55 PM 27.5 °F - 8.8 °F 45% 30.37 in 10.0 mi Calm Calm - N/A   Overcast
4:21 PM 26.6 °F - 12.2 °F 55% 30.37 in 10.0 mi Calm Calm - N/A   Overcast
4:55 PM 27.1 °F - 12.0 °F 53% 30.37 in 10.0 mi Calm Calm - N/A   Overcast
5:55 PM 27.0 °F - 12.7 °F 55% 30.37 in 10.0 mi Calm Calm - N/A   Overcast
6:55 PM 27.0 °F - 14.5 °F 60% 30.36 in 10.0 mi Calm Calm - N/A   Overcast
7:55 PM 27.3 °F - 15.1 °F 60% 30.38 in 10.0 mi Calm Calm - N/A   Overcast
8:32 PM 26.6 °F - 15.8 °F 64% 30.36 in 10.0 mi Calm Calm - N/A   Overcast
8:55 PM 27.0 °F - 14.9 °F 60% 30.36 in 10.0 mi Calm Calm - N/A   Overcast
9:04 PM 26.6 °F - 14.0 °F 59% 30.37 in 10.0 mi Calm Calm - N/A   Overcast
9:55 PM 27.1 °F - 16.2 °F 63% 30.37 in 10.0 mi Calm Calm - N/A   Overcast
10:45 PM 26.6 °F - 17.6 °F 69% 30.38 in 10.0 mi Calm Calm - N/A   Overcast
10:55 PM 27.0 °F - 18.1 °F 69% 30.38 in 10.0 mi Calm Calm - N/A   Overcast
11:55 PM 27.3 °F - 17.8 °F 67% 30.39 in 10.0 mi Calm Calm - N/A   Overcast